LEMUR-2-VU (43558 NORAD) Tracking and Keplerian Element Data

This shows tracking and keplerian element data for the satellite.

Feedback or suggestion? Click here.




ElementValue
Catalog43558
NameLEMUR-2-VU
Epoch Orbit5525
Epoch Day193.81505701
Epoch Year2019
RAAN299.9349
Inclination51.6426
Eccentricity0.0008089
Argument of Perigee155.5191
Mean Anonmoly204.6175
Mean Motion15.2943393
Decay Rate1.805E-05
L11 43558U 18046E 19193.81505701 .00001805 00000-0 74741-4 0 9995
L22 43558 51.6426 299.9349 0008089 155.5191 204.6175 15.29433930 55259

Live tracking and technical data element details for LEMUR-2-VU (NORAD 43558). LEMUR-2-VU can be tracked NOW for your location showing map with azimuth and elevation plus other details from your city location.

Track the satellite on the map from your city or location and see movement details for azimuth, elevation, latitude, longitude, range, height, and movement on the map or in text.







IsCatalogInMostPopularTable: catalog: 43558, numindb: 143
Update: records affected: 1



GetName: 43558 LEMUR-2-VU

Hit Count: updated at: Tue, 16 Jul 2019 20:31:02 GMT